Year,Month,Day,Hour,Minute,Value (Times are PST for temperature in C)
2021,07,29,00,00,19.80
2021,07,29,00,01,19.80
2021,07,29,00,02,19.80
2021,07,29,00,03,19.80
2021,07,29,00,04,19.70
2021,07,29,00,05,19.70
2021,07,29,00,06,19.70
2021,07,29,00,07,19.70
2021,07,29,00,08,19.70
2021,07,29,00,09,19.70
2021,07,29,00,10,19.60
2021,07,29,00,11,19.60
2021,07,29,00,12,19.50
2021,07,29,00,13,19.50
2021,07,29,00,14,19.40
2021,07,29,00,15,19.40
2021,07,29,00,16,19.40
2021,07,29,00,17,19.30
2021,07,29,00,18,19.30
2021,07,29,00,19,19.30
2021,07,29,00,20,19.30
2021,07,29,00,21,19.30
2021,07,29,00,22,19.30
2021,07,29,00,23,19.30
2021,07,29,00,24,19.20
2021,07,29,00,25,19.20
2021,07,29,00,26,19.20
2021,07,29,00,27,19.20
2021,07,29,00,28,19.20
2021,07,29,00,29,19.20
2021,07,29,00,30,19.20
2021,07,29,00,31,19.10
2021,07,29,00,32,19.20
2021,07,29,00,33,19.10
2021,07,29,00,34,19.20
2021,07,29,00,35,19.20
2021,07,29,00,36,19.20
2021,07,29,00,37,19.10
2021,07,29,00,38,19.10
2021,07,29,00,39,19.10
2021,07,29,00,40,19.10
2021,07,29,00,41,19.10
2021,07,29,00,42,19.10
2021,07,29,00,43,19.10
2021,07,29,00,44,19.10
2021,07,29,00,45,19.10
2021,07,29,00,46,19.10
2021,07,29,00,47,19.10
2021,07,29,00,48,19.00
2021,07,29,00,49,19.00
2021,07,29,00,50,19.00
2021,07,29,00,51,18.90
2021,07,29,00,52,18.90
2021,07,29,00,53,18.90
2021,07,29,00,54,18.90
2021,07,29,00,55,18.80
2021,07,29,00,56,18.80
2021,07,29,00,57,18.80
2021,07,29,00,58,18.70
2021,07,29,00,59,18.70
2021,07,29,01,00,18.70
2021,07,29,01,01,18.70
2021,07,29,01,02,18.70
2021,07,29,01,03,18.70
2021,07,29,01,04,18.60
2021,07,29,01,05,18.60
2021,07,29,01,06,18.60
2021,07,29,01,07,18.60
2021,07,29,01,08,18.60
2021,07,29,01,09,18.60
2021,07,29,01,10,18.60
2021,07,29,01,11,18.60
2021,07,29,01,12,18.50
2021,07,29,01,13,18.50
2021,07,29,01,14,18.50
2021,07,29,01,15,18.50
2021,07,29,01,16,18.40
2021,07,29,01,17,18.40
2021,07,29,01,18,18.40
2021,07,29,01,19,18.40
2021,07,29,01,20,18.40
2021,07,29,01,21,18.40
2021,07,29,01,22,18.40
2021,07,29,01,23,18.40
2021,07,29,01,24,18.40
2021,07,29,01,25,18.40
2021,07,29,01,26,18.40
2021,07,29,01,27,18.40
2021,07,29,01,28,18.40
2021,07,29,01,29,18.40
2021,07,29,01,30,18.40
2021,07,29,01,31,18.40
2021,07,29,01,32,18.30
2021,07,29,01,33,18.30
2021,07,29,01,34,18.30
2021,07,29,01,35,18.30
2021,07,29,01,36,18.30
2021,07,29,01,37,18.30
2021,07,29,01,38,18.30
2021,07,29,01,39,18.30
2021,07,29,01,40,18.30
2021,07,29,01,41,18.30
2021,07,29,01,42,18.30
2021,07,29,01,43,18.30
2021,07,29,01,44,18.20
2021,07,29,01,45,18.20
2021,07,29,01,46,18.20
2021,07,29,01,47,18.20
2021,07,29,01,48,18.20
2021,07,29,01,49,18.20
2021,07,29,01,50,18.20
2021,07,29,01,51,18.20
2021,07,29,01,52,18.20
2021,07,29,01,53,18.20
2021,07,29,01,54,18.10
2021,07,29,01,55,18.10
2021,07,29,01,56,18.10
2021,07,29,01,57,18.10
2021,07,29,01,58,18.10
2021,07,29,01,59,18.00
2021,07,29,02,00,18.00
2021,07,29,02,01,18.00
2021,07,29,02,02,18.00
2021,07,29,02,03,18.00
2021,07,29,02,04,17.90
2021,07,29,02,05,17.90
2021,07,29,02,06,17.90
2021,07,29,02,07,17.90
2021,07,29,02,08,17.90
2021,07,29,02,09,17.90
2021,07,29,02,10,17.90
2021,07,29,02,11,17.90
2021,07,29,02,12,17.90
2021,07,29,02,13,17.90
2021,07,29,02,14,17.90
2021,07,29,02,15,17.90
2021,07,29,02,16,17.90
2021,07,29,02,17,17.90
2021,07,29,02,18,17.90
2021,07,29,02,19,17.90
2021,07,29,02,20,17.90
2021,07,29,02,21,17.90
2021,07,29,02,22,17.90
2021,07,29,02,23,17.90
2021,07,29,02,24,17.90
2021,07,29,02,25,17.90
2021,07,29,02,26,17.80
2021,07,29,02,27,17.80
2021,07,29,02,28,17.80
2021,07,29,02,29,17.80
2021,07,29,02,30,17.80
2021,07,29,02,31,17.80
2021,07,29,02,32,17.80
2021,07,29,02,33,17.80
2021,07,29,02,34,17.80
2021,07,29,02,35,17.70
2021,07,29,02,36,17.70
2021,07,29,02,37,17.70
2021,07,29,02,38,17.70
2021,07,29,02,39,17.70
2021,07,29,02,40,17.70
2021,07,29,02,41,17.70
2021,07,29,02,42,17.70
2021,07,29,02,43,17.70
2021,07,29,02,44,17.60
2021,07,29,02,45,17.60
2021,07,29,02,46,17.60
2021,07,29,02,47,17.60
2021,07,29,02,48,17.60
2021,07,29,02,49,17.60
2021,07,29,02,50,17.60
2021,07,29,02,51,17.60
2021,07,29,02,52,17.60
2021,07,29,02,53,17.60
2021,07,29,02,54,17.60
2021,07,29,02,55,17.60
2021,07,29,02,56,17.50
2021,07,29,02,57,17.50
2021,07,29,02,58,17.50
2021,07,29,02,59,17.50
2021,07,29,03,00,17.50
2021,07,29,03,01,17.50
2021,07,29,03,02,17.50
2021,07,29,03,03,17.40
2021,07,29,03,04,17.40
2021,07,29,03,05,17.40
2021,07,29,03,06,17.40
2021,07,29,03,07,17.40
2021,07,29,03,08,17.40
2021,07,29,03,09,17.40
2021,07,29,03,10,17.40
2021,07,29,03,11,17.40
2021,07,29,03,12,17.50
2021,07,29,03,13,17.50
2021,07,29,03,14,17.50
2021,07,29,03,15,17.50
2021,07,29,03,16,17.60
2021,07,29,03,17,17.60
2021,07,29,03,18,17.60
2021,07,29,03,19,17.70
2021,07,29,03,20,17.70
2021,07,29,03,21,17.70
2021,07,29,03,22,17.70
2021,07,29,03,23,17.70
2021,07,29,03,24,17.70
2021,07,29,03,25,17.70
2021,07,29,03,26,17.80
2021,07,29,03,27,17.80
2021,07,29,03,28,17.80
2021,07,29,03,29,17.80
2021,07,29,03,30,17.80
2021,07,29,03,31,17.80
2021,07,29,03,32,17.80
2021,07,29,03,33,17.70
2021,07,29,03,34,17.70
2021,07,29,03,35,17.70
2021,07,29,03,36,17.70
2021,07,29,03,37,17.70
2021,07,29,03,38,17.70
2021,07,29,03,39,17.70
2021,07,29,03,40,17.60
2021,07,29,03,41,17.60
2021,07,29,03,42,17.60
2021,07,29,03,43,17.60
2021,07,29,03,44,17.60
2021,07,29,03,45,17.60
2021,07,29,03,46,17.60
2021,07,29,03,47,17.60
2021,07,29,03,48,17.60
2021,07,29,03,49,17.60
2021,07,29,03,50,17.60
2021,07,29,03,51,17.60
2021,07,29,03,52,17.60
2021,07,29,03,53,17.60
2021,07,29,03,54,17.60
2021,07,29,03,55,17.60
2021,07,29,03,56,17.60
2021,07,29,03,57,17.50
2021,07,29,03,58,17.50
2021,07,29,03,59,17.50
2021,07,29,04,00,17.50
2021,07,29,04,01,17.50
2021,07,29,04,02,17.40
2021,07,29,04,03,17.40
2021,07,29,04,04,17.40
2021,07,29,04,05,17.40
2021,07,29,04,06,17.40
2021,07,29,04,07,17.40
2021,07,29,04,08,17.40
2021,07,29,04,09,17.40
2021,07,29,04,10,17.40
2021,07,29,04,11,17.40
2021,07,29,04,12,17.40
2021,07,29,04,13,17.40
2021,07,29,04,14,17.40
2021,07,29,04,15,17.30
2021,07,29,04,16,17.30
2021,07,29,04,17,17.30
2021,07,29,04,18,17.30
2021,07,29,04,19,17.30
2021,07,29,04,20,17.30
2021,07,29,04,21,17.30
2021,07,29,04,22,17.30
2021,07,29,04,23,17.30
2021,07,29,04,24,17.30
2021,07,29,04,25,17.30
2021,07,29,04,26,17.30
2021,07,29,04,27,17.30
2021,07,29,04,28,17.30
2021,07,29,04,29,17.30
2021,07,29,04,30,17.30
2021,07,29,04,31,17.30
2021,07,29,04,32,17.30
2021,07,29,04,33,17.30
2021,07,29,04,34,17.30
2021,07,29,04,35,17.30
2021,07,29,04,36,17.30
2021,07,29,04,37,17.30
2021,07,29,04,38,17.30
2021,07,29,04,39,17.30
2021,07,29,04,40,17.30
2021,07,29,04,41,17.30
2021,07,29,04,42,17.30
2021,07,29,04,43,17.30
2021,07,29,04,44,17.40
2021,07,29,04,45,17.40
2021,07,29,04,46,17.40
2021,07,29,04,47,17.40
2021,07,29,04,48,17.30
2021,07,29,04,49,17.30
2021,07,29,04,50,17.30
2021,07,29,04,51,17.30
2021,07,29,04,52,17.30
2021,07,29,04,53,17.30
2021,07,29,04,54,17.30
2021,07,29,04,55,17.30
2021,07,29,04,56,17.30
2021,07,29,04,57,17.30
2021,07,29,04,58,17.30
2021,07,29,04,59,17.20
2021,07,29,05,00,17.20
2021,07,29,05,01,17.20
2021,07,29,05,02,17.20
2021,07,29,05,03,17.20
2021,07,29,05,04,17.20
2021,07,29,05,05,17.10
2021,07,29,05,06,17.10
2021,07,29,05,07,17.10
2021,07,29,05,08,17.10
2021,07,29,05,09,17.10
2021,07,29,05,10,17.10
2021,07,29,05,11,17.00
2021,07,29,05,12,17.00
2021,07,29,05,13,17.00
2021,07,29,05,14,16.90
2021,07,29,05,15,16.90
2021,07,29,05,16,16.90
2021,07,29,05,17,16.80
2021,07,29,05,18,16.80
2021,07,29,05,19,16.80
2021,07,29,05,20,16.80
2021,07,29,05,21,16.80
2021,07,29,05,22,16.80
2021,07,29,05,23,16.70
2021,07,29,05,24,16.70
2021,07,29,05,25,16.70
2021,07,29,05,26,16.70
2021,07,29,05,27,16.70
2021,07,29,05,28,16.70
2021,07,29,05,29,16.60
2021,07,29,05,30,16.60
2021,07,29,05,31,16.60
2021,07,29,05,32,16.60
2021,07,29,05,33,16.60
2021,07,29,05,34,16.60
2021,07,29,05,35,16.60
2021,07,29,05,36,16.60
2021,07,29,05,37,16.50
2021,07,29,05,38,16.50
2021,07,29,05,39,16.50
2021,07,29,05,40,16.50
2021,07,29,05,41,16.50
2021,07,29,05,42,16.50
2021,07,29,05,43,16.50
2021,07,29,05,44,16.50
2021,07,29,05,45,16.40
2021,07,29,05,46,16.50
2021,07,29,05,47,16.50
2021,07,29,05,48,16.40
2021,07,29,05,49,16.40
2021,07,29,05,50,16.40
2021,07,29,05,51,16.40
2021,07,29,05,52,16.40
2021,07,29,05,53,16.40
2021,07,29,05,54,16.40
2021,07,29,05,55,16.40
2021,07,29,05,56,16.40
2021,07,29,05,57,16.40
2021,07,29,05,58,16.40
2021,07,29,05,59,16.40
2021,07,29,06,00,16.40
2021,07,29,06,01,16.40
2021,07,29,06,02,16.40
2021,07,29,06,03,16.40
2021,07,29,06,04,16.40
2021,07,29,06,05,16.40
2021,07,29,06,06,16.40
2021,07,29,06,07,16.40
2021,07,29,06,08,16.40
2021,07,29,06,09,16.30
2021,07,29,06,10,16.40
2021,07,29,06,11,16.40
2021,07,29,06,12,16.40
2021,07,29,06,13,16.30
2021,07,29,06,14,16.30
2021,07,29,06,15,16.30
2021,07,29,06,16,16.30
2021,07,29,06,17,16.30
2021,07,29,06,18,16.30
2021,07,29,06,19,16.30
2021,07,29,06,20,16.30
2021,07,29,06,21,16.30
2021,07,29,06,22,16.30
2021,07,29,06,23,16.30
2021,07,29,06,24,16.30
2021,07,29,06,25,16.30
2021,07,29,06,26,16.30
2021,07,29,06,27,16.30
2021,07,29,06,28,16.30
2021,07,29,06,29,16.20
2021,07,29,06,30,16.20
2021,07,29,06,31,16.20
2021,07,29,06,32,16.20
2021,07,29,06,33,16.20
2021,07,29,06,34,16.20
2021,07,29,06,35,16.20
2021,07,29,06,36,16.20
2021,07,29,06,37,16.20
2021,07,29,06,38,16.20
2021,07,29,06,39,16.20
2021,07,29,06,40,16.20
2021,07,29,06,41,16.20
2021,07,29,06,42,16.20
2021,07,29,06,43,16.20
2021,07,29,06,44,16.20
2021,07,29,06,45,16.20
2021,07,29,06,46,16.20
2021,07,29,06,47,16.20
2021,07,29,06,48,16.20
2021,07,29,06,49,16.20
2021,07,29,06,50,16.20
2021,07,29,06,51,16.20
2021,07,29,06,52,16.20
2021,07,29,06,53,16.20
2021,07,29,06,54,16.20
2021,07,29,06,55,16.20
2021,07,29,06,56,16.20
2021,07,29,06,57,16.20
2021,07,29,06,58,16.20
2021,07,29,06,59,16.20
2021,07,29,07,00,16.20
2021,07,29,07,01,16.20
2021,07,29,07,02,16.20
2021,07,29,07,03,16.20
2021,07,29,07,04,16.20
2021,07,29,07,05,16.20
2021,07,29,07,06,16.20
2021,07,29,07,07,16.20
2021,07,29,07,08,16.20
2021,07,29,07,09,16.20
2021,07,29,07,10,16.20
2021,07,29,07,11,16.20
2021,07,29,07,12,16.20
2021,07,29,07,13,16.20
2021,07,29,07,14,16.20
2021,07,29,07,15,16.20
2021,07,29,07,16,16.20
2021,07,29,07,17,16.20
2021,07,29,07,18,16.20
2021,07,29,07,19,16.20
2021,07,29,07,20,16.20
2021,07,29,07,21,16.20
2021,07,29,07,22,16.20
2021,07,29,07,23,16.20
2021,07,29,07,24,16.30
2021,07,29,07,25,16.30
2021,07,29,07,26,16.30
2021,07,29,07,27,16.30
2021,07,29,07,28,16.30
2021,07,29,07,29,16.30
2021,07,29,07,30,16.30
2021,07,29,07,31,16.30
2021,07,29,07,32,16.30
2021,07,29,07,33,16.30
2021,07,29,07,34,16.30
2021,07,29,07,35,16.30
2021,07,29,07,36,16.30
2021,07,29,07,37,16.30
2021,07,29,07,38,16.30
2021,07,29,07,39,16.30
2021,07,29,07,40,16.30
2021,07,29,07,41,16.30
2021,07,29,07,42,16.40
2021,07,29,07,43,16.40
2021,07,29,07,44,16.40
2021,07,29,07,45,16.40
2021,07,29,07,46,16.40
2021,07,29,07,47,16.40
2021,07,29,07,48,16.40
2021,07,29,07,49,16.50
2021,07,29,07,50,16.50
2021,07,29,07,51,16.50
2021,07,29,07,52,16.50
2021,07,29,07,53,16.50
2021,07,29,07,54,16.50
2021,07,29,07,55,16.50
2021,07,29,07,56,16.50
2021,07,29,07,57,16.50
2021,07,29,07,58,16.50
2021,07,29,07,59,16.50
2021,07,29,08,00,16.50
2021,07,29,08,01,16.50
2021,07,29,08,02,16.50
2021,07,29,08,03,16.50
2021,07,29,08,04,16.50
2021,07,29,08,05,16.50
2021,07,29,08,06,16.50
2021,07,29,08,07,16.50
2021,07,29,08,08,16.50
2021,07,29,08,09,16.50
2021,07,29,08,10,16.50
2021,07,29,08,11,16.50
2021,07,29,08,12,16.60
2021,07,29,08,13,16.50
2021,07,29,08,14,16.60
2021,07,29,08,15,16.60
2021,07,29,08,16,16.60
2021,07,29,08,17,16.60
2021,07,29,08,18,16.50
2021,07,29,08,19,16.60
2021,07,29,08,20,16.60
2021,07,29,08,21,16.60
2021,07,29,08,22,16.60
2021,07,29,08,23,16.60
2021,07,29,08,24,16.60
2021,07,29,08,25,16.60
2021,07,29,08,26,16.60
2021,07,29,08,27,16.60
2021,07,29,08,28,16.60
2021,07,29,08,29,16.60
2021,07,29,08,30,16.60
2021,07,29,08,31,16.60
2021,07,29,08,32,16.60
2021,07,29,08,33,16.60
2021,07,29,08,34,16.70
2021,07,29,08,35,16.70
2021,07,29,08,36,16.70
2021,07,29,08,37,16.70
2021,07,29,08,38,16.70
2021,07,29,08,39,16.70
2021,07,29,08,40,16.70
2021,07,29,08,41,16.70
2021,07,29,08,42,16.70
2021,07,29,08,43,16.70
2021,07,29,08,44,16.70
2021,07,29,08,45,16.70
2021,07,29,08,46,16.70
2021,07,29,08,47,16.70
2021,07,29,08,48,16.80
2021,07,29,08,49,16.80
2021,07,29,08,50,16.80
2021,07,29,08,51,16.80
2021,07,29,08,52,16.80
2021,07,29,08,53,16.80
2021,07,29,08,54,16.80
2021,07,29,08,55,16.80
2021,07,29,08,56,16.90
2021,07,29,08,57,16.90
2021,07,29,08,58,16.90
2021,07,29,08,59,16.90
2021,07,29,09,00,16.90
2021,07,29,09,01,17.00
2021,07,29,09,02,17.00
2021,07,29,09,03,17.00
2021,07,29,09,04,17.10
2021,07,29,09,05,17.10
2021,07,29,09,06,17.10
2021,07,29,09,07,17.10
2021,07,29,09,08,17.20
2021,07,29,09,09,17.20
2021,07,29,09,10,17.20
2021,07,29,09,11,17.30
2021,07,29,09,12,17.30
2021,07,29,09,13,17.30
2021,07,29,09,14,17.30
2021,07,29,09,15,17.40
2021,07,29,09,16,17.40
2021,07,29,09,17,17.40
2021,07,29,09,18,17.50
2021,07,29,09,19,17.40
2021,07,29,09,20,17.50
2021,07,29,09,21,17.50
2021,07,29,09,22,17.50
2021,07,29,09,23,17.50
2021,07,29,09,24,17.50
2021,07,29,09,25,17.50
2021,07,29,09,26,17.50
2021,07,29,09,27,17.60
2021,07,29,09,28,17.60
2021,07,29,09,29,17.50
2021,07,29,09,30,17.50
2021,07,29,09,31,17.50
2021,07,29,09,32,17.50
2021,07,29,09,33,17.50
2021,07,29,09,34,17.50
2021,07,29,09,35,17.50
2021,07,29,09,36,17.50
2021,07,29,09,37,17.50
2021,07,29,09,38,17.50
2021,07,29,09,39,17.50
2021,07,29,09,40,17.50
2021,07,29,09,41,17.50
2021,07,29,09,42,17.50
2021,07,29,09,43,17.50
2021,07,29,09,44,17.50
2021,07,29,09,45,17.60
2021,07,29,09,46,17.60
2021,07,29,09,47,17.60
2021,07,29,09,48,17.60
2021,07,29,09,49,17.60
2021,07,29,09,50,17.60
2021,07,29,09,51,17.70
2021,07,29,09,52,17.70
2021,07,29,09,53,17.70
2021,07,29,09,54,17.70
2021,07,29,09,55,17.70
2021,07,29,09,56,17.70
2021,07,29,09,57,17.80
2021,07,29,09,58,17.80
2021,07,29,09,59,17.80
2021,07,29,10,00,17.90
2021,07,29,10,01,17.90
2021,07,29,10,02,17.90
2021,07,29,10,03,18.00
2021,07,29,10,04,18.00
2021,07,29,10,05,18.00
2021,07,29,10,06,18.10
2021,07,29,10,07,18.10
2021,07,29,10,08,18.20
2021,07,29,10,09,18.20
2021,07,29,10,10,18.30
2021,07,29,10,11,18.30
2021,07,29,10,12,18.40
2021,07,29,10,13,18.50
2021,07,29,10,14,18.50
2021,07,29,10,15,18.60
2021,07,29,10,16,18.60
2021,07,29,10,17,18.70
2021,07,29,10,18,18.80
2021,07,29,10,19,18.80
2021,07,29,10,20,18.90
2021,07,29,10,21,19.00
2021,07,29,10,22,19.10
2021,07,29,10,23,19.20
2021,07,29,10,24,19.20
2021,07,29,10,25,19.30
2021,07,29,10,26,19.30
2021,07,29,10,27,19.40
2021,07,29,10,28,19.50
2021,07,29,10,29,19.50
2021,07,29,10,30,19.60
2021,07,29,10,31,19.70
2021,07,29,10,32,19.70
2021,07,29,10,33,19.80
2021,07,29,10,34,19.80
2021,07,29,10,35,19.80
2021,07,29,10,36,19.90
2021,07,29,10,37,19.90
2021,07,29,10,38,19.90
2021,07,29,10,39,19.90
2021,07,29,10,40,20.00
2021,07,29,10,41,20.00
2021,07,29,10,42,20.00
2021,07,29,10,43,20.00
2021,07,29,10,44,20.00
2021,07,29,10,45,20.00
2021,07,29,10,46,19.90
2021,07,29,10,47,20.00
2021,07,29,10,48,20.00
2021,07,29,10,49,20.00
2021,07,29,10,50,20.00
2021,07,29,10,51,20.00
2021,07,29,10,52,20.00
2021,07,29,10,53,20.10
2021,07,29,10,54,20.10
2021,07,29,10,55,20.10
2021,07,29,10,56,20.10
2021,07,29,10,57,20.20
2021,07,29,10,58,20.20
2021,07,29,10,59,20.20
2021,07,29,11,00,20.30
2021,07,29,11,01,20.30
2021,07,29,11,02,20.30
2021,07,29,11,03,20.30
2021,07,29,11,04,20.30
2021,07,29,11,05,20.30
2021,07,29,11,06,20.40
2021,07,29,11,07,20.40
2021,07,29,11,08,20.40
2021,07,29,11,09,20.50
2021,07,29,11,10,20.50
2021,07,29,11,11,20.50
2021,07,29,11,12,20.50
2021,07,29,11,13,20.50
2021,07,29,11,14,20.50
2021,07,29,11,15,20.50
2021,07,29,11,16,20.60
2021,07,29,11,17,20.60
2021,07,29,11,18,20.60
2021,07,29,11,19,20.70
2021,07,29,11,20,20.70
2021,07,29,11,21,20.70
2021,07,29,11,22,20.70
2021,07,29,11,23,20.70
2021,07,29,11,24,20.70
2021,07,29,11,25,20.70
2021,07,29,11,26,20.70
2021,07,29,11,27,20.70
2021,07,29,11,28,20.70
2021,07,29,11,29,20.70
2021,07,29,11,30,20.70
2021,07,29,11,31,20.80
2021,07,29,11,32,20.80
2021,07,29,11,33,20.90
2021,07,29,11,34,21.00
2021,07,29,11,35,21.10
2021,07,29,11,36,21.20
2021,07,29,11,37,21.20
2021,07,29,11,38,21.30
2021,07,29,11,39,21.40
2021,07,29,11,40,21.40
2021,07,29,11,41,21.40
2021,07,29,11,42,21.50
2021,07,29,11,43,21.50
2021,07,29,11,44,21.60
2021,07,29,11,45,21.60
2021,07,29,11,46,21.60
2021,07,29,11,47,21.70
2021,07,29,11,48,21.70
2021,07,29,11,49,21.80
2021,07,29,11,50,21.80
2021,07,29,11,51,21.90
2021,07,29,11,52,21.90
2021,07,29,11,53,22.00
2021,07,29,11,54,22.00
2021,07,29,11,55,22.10
2021,07,29,11,56,22.10
2021,07,29,11,57,22.20
2021,07,29,11,58,22.20
2021,07,29,11,59,22.30
2021,07,29,12,00,22.30
2021,07,29,12,01,22.30
2021,07,29,12,02,22.30
2021,07,29,12,03,22.30
2021,07,29,12,04,22.40
2021,07,29,12,05,22.40
2021,07,29,12,06,22.40
2021,07,29,12,07,22.40
2021,07,29,12,08,22.50
2021,07,29,12,09,22.50
2021,07,29,12,10,22.60
2021,07,29,12,11,22.60
2021,07,29,12,12,22.60
2021,07,29,12,13,22.50
2021,07,29,12,14,22.50
2021,07,29,12,15,22.60
2021,07,29,12,16,22.50
2021,07,29,12,17,22.50
2021,07,29,12,18,22.50
2021,07,29,12,19,22.40
2021,07,29,12,20,22.40
2021,07,29,12,21,22.50
2021,07,29,12,22,22.50
2021,07,29,12,23,22.50
2021,07,29,12,24,22.50
2021,07,29,12,25,22.60
2021,07,29,12,26,22.60
2021,07,29,12,27,22.60
2021,07,29,12,28,22.60
2021,07,29,12,29,22.60
2021,07,29,12,30,22.60
2021,07,29,12,31,22.60
2021,07,29,12,32,22.50
2021,07,29,12,33,22.50
2021,07,29,12,34,22.50
2021,07,29,12,35,22.40
2021,07,29,12,36,22.40
2021,07,29,12,37,22.40
2021,07,29,12,38,22.40
2021,07,29,12,39,22.50
2021,07,29,12,40,22.50
2021,07,29,12,41,22.50
2021,07,29,12,42,22.60
2021,07,29,12,43,22.60
2021,07,29,12,44,22.70
2021,07,29,12,45,22.70
2021,07,29,12,46,22.70
2021,07,29,12,47,22.80
2021,07,29,12,48,22.90
2021,07,29,12,49,22.90
2021,07,29,12,50,22.90
2021,07,29,12,51,23.00
2021,07,29,12,52,23.00
2021,07,29,12,53,23.00
2021,07,29,12,54,23.00
2021,07,29,12,55,23.00
2021,07,29,12,56,22.90
2021,07,29,12,57,22.90
2021,07,29,12,58,22.90
2021,07,29,12,59,23.00
2021,07,29,13,00,23.00
2021,07,29,13,01,23.10
2021,07,29,13,02,23.10
2021,07,29,13,03,23.10
2021,07,29,13,04,23.10
2021,07,29,13,05,23.10
2021,07,29,13,06,23.10
2021,07,29,13,07,23.00
2021,07,29,13,08,22.90
2021,07,29,13,09,22.80
2021,07,29,13,10,22.70
2021,07,29,13,11,22.60
2021,07,29,13,12,22.50
2021,07,29,13,13,22.40
2021,07,29,13,14,22.40
2021,07,29,13,15,22.40
2021,07,29,13,16,22.50
2021,07,29,13,17,22.50
2021,07,29,13,18,22.70
2021,07,29,13,19,22.80
2021,07,29,13,20,23.00
2021,07,29,13,21,23.10
2021,07,29,13,22,23.20
2021,07,29,13,23,23.20
2021,07,29,13,24,23.20
2021,07,29,13,25,23.20
2021,07,29,13,26,23.20
2021,07,29,13,27,23.20
2021,07,29,13,28,23.20
2021,07,29,13,29,23.20
2021,07,29,13,30,23.10
2021,07,29,13,31,23.10
2021,07,29,13,32,23.00
2021,07,29,13,33,23.00
2021,07,29,13,34,23.00
2021,07,29,13,35,23.00
2021,07,29,13,36,23.10
2021,07,29,13,37,23.20
2021,07,29,13,38,23.20
2021,07,29,13,39,23.30
2021,07,29,13,40,23.30
2021,07,29,13,41,23.30
2021,07,29,13,42,23.40
2021,07,29,13,43,23.50
2021,07,29,13,44,23.50
2021,07,29,13,45,23.70
2021,07,29,13,46,23.70
2021,07,29,13,47,23.80
2021,07,29,13,48,23.80
2021,07,29,13,49,23.90
2021,07,29,13,50,23.90
2021,07,29,13,51,24.00
2021,07,29,13,52,24.10
2021,07,29,13,53,24.10
2021,07,29,13,54,24.10
2021,07,29,13,55,24.10
2021,07,29,13,56,24.20
2021,07,29,13,57,24.20
2021,07,29,13,58,24.20
2021,07,29,13,59,24.10
2021,07,29,14,00,24.10
2021,07,29,14,01,24.10
2021,07,29,14,02,24.10
2021,07,29,14,03,24.10
2021,07,29,14,04,24.20
2021,07,29,14,05,24.20
2021,07,29,14,06,24.20
2021,07,29,14,07,24.20
2021,07,29,14,08,24.20
2021,07,29,14,09,24.20
2021,07,29,14,10,24.30
2021,07,29,14,11,24.30
2021,07,29,14,12,24.30
2021,07,29,14,13,24.30
2021,07,29,14,14,24.30
2021,07,29,14,15,24.30
2021,07,29,14,16,24.30
2021,07,29,14,17,24.40
2021,07,29,14,18,24.40
2021,07,29,14,19,24.40
2021,07,29,14,20,24.40
2021,07,29,14,21,24.50
2021,07,29,14,22,24.60
2021,07,29,14,23,24.60
2021,07,29,14,24,24.60
2021,07,29,14,25,24.70
2021,07,29,14,26,24.70
2021,07,29,14,27,24.80
2021,07,29,14,28,24.80
2021,07,29,14,29,24.90
2021,07,29,14,30,24.90
2021,07,29,14,31,24.90
2021,07,29,14,32,24.90
2021,07,29,14,33,24.90
2021,07,29,14,34,24.90
2021,07,29,14,35,24.90
2021,07,29,14,36,24.90
2021,07,29,14,37,24.90
2021,07,29,14,38,25.00
2021,07,29,14,39,25.00
2021,07,29,14,40,25.10
2021,07,29,14,41,25.10
2021,07,29,14,42,25.10
2021,07,29,14,43,25.20
2021,07,29,14,44,25.20
2021,07,29,14,45,25.20
2021,07,29,14,46,25.20
2021,07,29,14,47,25.30
2021,07,29,14,48,25.40
2021,07,29,14,49,25.50
2021,07,29,14,50,25.60
2021,07,29,14,51,25.70
2021,07,29,14,52,25.70
2021,07,29,14,53,25.70
2021,07,29,14,54,25.70
2021,07,29,14,55,25.70
2021,07,29,14,56,25.70
2021,07,29,14,57,25.70
2021,07,29,14,58,25.70
2021,07,29,14,59,25.70
2021,07,29,15,00,25.60
2021,07,29,15,01,25.60
2021,07,29,15,02,25.60
2021,07,29,15,03,25.60
2021,07,29,15,04,25.60
2021,07,29,15,05,25.60
2021,07,29,15,06,25.60
2021,07,29,15,07,25.50
2021,07,29,15,08,25.50
2021,07,29,15,09,25.40
2021,07,29,15,10,25.40
2021,07,29,15,11,25.40
2021,07,29,15,12,25.40
2021,07,29,15,13,25.30
2021,07,29,15,14,25.30
2021,07,29,15,15,25.30
2021,07,29,15,16,25.30
2021,07,29,15,17,25.30
2021,07,29,15,18,25.30
2021,07,29,15,19,25.40
2021,07,29,15,20,25.40
2021,07,29,15,21,25.50
2021,07,29,15,22,25.50
2021,07,29,15,23,25.60
2021,07,29,15,24,25.60
2021,07,29,15,25,25.70
2021,07,29,15,26,25.80
2021,07,29,15,27,25.80
2021,07,29,15,28,25.90
2021,07,29,15,29,26.00
2021,07,29,15,30,26.10
2021,07,29,15,31,26.10
2021,07,29,15,32,26.10
2021,07,29,15,33,26.10
2021,07,29,15,34,26.10
2021,07,29,15,35,26.00
2021,07,29,15,36,26.00
2021,07,29,15,37,26.00
2021,07,29,15,38,26.00
2021,07,29,15,39,26.00
2021,07,29,15,40,25.90
2021,07,29,15,41,25.90
2021,07,29,15,42,25.90
2021,07,29,15,43,25.80
2021,07,29,15,44,25.80
2021,07,29,15,45,25.80
2021,07,29,15,46,25.80
2021,07,29,15,47,25.80
2021,07,29,15,48,25.70
2021,07,29,15,49,25.60
2021,07,29,15,50,25.50
2021,07,29,15,51,25.40
2021,07,29,15,52,25.40
2021,07,29,15,53,25.40
2021,07,29,15,54,25.40
2021,07,29,15,55,25.30
2021,07,29,15,56,25.20
2021,07,29,15,57,25.20
2021,07,29,15,58,25.10
2021,07,29,15,59,25.00
2021,07,29,16,00,24.90
2021,07,29,16,01,24.90
2021,07,29,16,02,24.90
2021,07,29,16,03,25.00
2021,07,29,16,04,25.10
2021,07,29,16,05,25.00
2021,07,29,16,06,25.00
2021,07,29,16,07,24.90
2021,07,29,16,08,24.80
2021,07,29,16,09,24.80
2021,07,29,16,10,24.70
2021,07,29,16,11,24.60
2021,07,29,16,12,24.50
2021,07,29,16,13,24.40
2021,07,29,16,14,24.30
2021,07,29,16,15,24.20
2021,07,29,16,16,24.10
2021,07,29,16,17,24.10
2021,07,29,16,18,24.00
2021,07,29,16,19,24.00
2021,07,29,16,20,24.10
2021,07,29,16,21,24.10
2021,07,29,16,22,24.10
2021,07,29,16,23,24.10
2021,07,29,16,24,24.20
2021,07,29,16,25,24.20
2021,07,29,16,26,24.20
2021,07,29,16,27,24.40
2021,07,29,16,28,24.50
2021,07,29,16,29,24.70
2021,07,29,16,30,24.90
2021,07,29,16,31,25.20
2021,07,29,16,32,25.50
2021,07,29,16,33,25.80
2021,07,29,16,34,26.00
2021,07,29,16,35,26.20
2021,07,29,16,36,26.40
2021,07,29,16,37,26.60
2021,07,29,16,38,26.80
2021,07,29,16,39,26.90
2021,07,29,16,40,27.00
2021,07,29,16,41,27.10
2021,07,29,16,42,27.20
2021,07,29,16,43,27.20
2021,07,29,16,44,27.30
2021,07,29,16,45,27.30
2021,07,29,16,46,27.30
2021,07,29,16,47,27.30
2021,07,29,16,48,27.20
2021,07,29,16,49,27.20
2021,07,29,16,50,27.10
2021,07,29,16,51,27.00
2021,07,29,16,52,27.00
2021,07,29,16,53,26.90
2021,07,29,16,54,26.90
2021,07,29,16,55,26.80
2021,07,29,16,56,26.80
2021,07,29,16,57,26.70
2021,07,29,16,58,26.70
2021,07,29,16,59,26.70
2021,07,29,17,00,26.70
2021,07,29,17,01,26.80
2021,07,29,17,02,26.80
2021,07,29,17,03,26.90
2021,07,29,17,04,26.90
2021,07,29,17,05,26.90
2021,07,29,17,06,26.90
2021,07,29,17,07,26.90
2021,07,29,17,08,26.90
2021,07,29,17,09,26.90
2021,07,29,17,10,26.90
2021,07,29,17,11,26.80
2021,07,29,17,12,26.80
2021,07,29,17,13,26.80
2021,07,29,17,14,26.80
2021,07,29,17,15,26.80
2021,07,29,17,16,26.80
2021,07,29,17,17,26.80
2021,07,29,17,18,26.80
2021,07,29,17,19,26.80